User: anonymous   Login
Location: Unspecified
(0.0000°N, 0.0000°E)
Time: 20:15:54
(UTC+00:00)
Language:

BlueWalker 3 - Orbit

View from above orbital plane
View from above orbital plane
View from above satellite
View from above satellite

Ground track
Ground track

The orbit is defined by the following mean orbital elements,

1 53807U          26111.25147948 +.00000000 +00000-0 +69115-4 0 00003
2 53807  53.2305 301.1236 0006262  18.2471 341.8758 15.37601288    05
Epoch (UTC): 21 April 2026 06:02:07
Eccentricity: 0.0006262
inclination: 53.2305°
perigee height: 449 km
apogee height: 457 km
right ascension of ascending node: 301.1236°
argument of perigee: 18.2471°
revolutions per day: 15.37601288
mean anomaly at epoch: 341.8758°

The dashed part of the orbit path shows where the satellite is in the earth's shadow,  

DLR